TimeAEST,TemperatureF,Dew PointF,Humidity,Sea Level PressureIn,VisibilityMPH,Wind Direction,Wind SpeedMPH,Gust SpeedMPH,PrecipitationIn,Events,Conditions,WindDirDegrees,DateUTC
12:00 AM,33,32,94,30.42,,Calm,Calm,,,,,,2013-06-08 14:00:00
12:00 AM,32.0,32.0,100,30.36,6.2,Calm,Calm,-,N/A,,Mostly Cloudy,0,2013-06-08 14:00:00
12:30 AM,35.6,33.8,93,30.36,6.2,Calm,Calm,-,N/A,,Overcast,0,2013-06-08 14:30:00
1:00 AM,35,33,90,30.41,,NNW,1.2,,,,,340,2013-06-08 15:00:00
1:00 AM,33.8,33.8,100,30.36,6.2,NNW,1.2,-,N/A,,Mostly Cloudy,340,2013-06-08 15:00:00
1:30 AM,33.8,32.0,93,30.36,6.2,North,3.5,-,N/A,,Scattered Clouds,350,2013-06-08 15:30:00
1:55 AM,32.0,32.0,100,30.36,3.7,SSW,3.5,-,N/A,,Unknown,210,2013-06-08 15:55:00
2:00 AM,33.8,32.0,93,30.36,3.7,West,4.6,-,N/A,,Scattered Clouds,260,2013-06-08 16:00:00
2:12 AM,32.0,32.0,100,30.36,5.6,WSW,2.3,-,N/A,,Mostly Cloudy,250,2013-06-08 16:12:00
2:15 AM,32.0,32.0,100,30.36,3.7,SSW,2.3,-,N/A,,Mostly Cloudy,210,2013-06-08 16:15:00
2:30 AM,33.8,33.8,100,30.36,3.7,SE,3.5,-,N/A,,Mostly Cloudy,130,2013-06-08 16:30:00
2:42 AM,33.8,33.8,100,30.36,6.2,South,4.6,-,N/A,,Overcast,190,2013-06-08 16:42:00
3:00 AM,34,34,98,30.39,,South,1.2,,,,,190,2013-06-08 17:00:00
3:00 AM,33.8,33.8,100,30.33,6.2,South,1.2,-,N/A,,Overcast,190,2013-06-08 17:00:00
3:30 AM,33.8,33.8,100,30.33,6.2,Calm,Calm,-,N/A,,Overcast,0,2013-06-08 17:30:00
4:00 AM,35,33,92,30.38,,Calm,Calm,,,,,,2013-06-08 18:00:00
4:00 AM,35.6,33.8,93,30.33,6.2,Calm,Calm,-,N/A,,Overcast,0,2013-06-08 18:00:00
4:30 AM,33.8,32.0,93,30.33,6.2,Calm,Calm,-,N/A,,Scattered Clouds,0,2013-06-08 18:30:00
4:54 AM,33.8,32.0,93,30.33,3.7,Calm,Calm,-,N/A,,Unknown,0,2013-06-08 18:54:00
4:59 AM,32.0,32.0,100,30.33,0.6,Calm,Calm,-,N/A,,Unknown,0,2013-06-08 18:59:00
5:00 AM,32.0,32.0,100,30.33,0.4,Calm,Calm,-,N/A,,Unknown,0,2013-06-08 19:00:00
5:03 AM,32.0,32.0,100,30.33,0.3,Calm,Calm,-,N/A,,Unknown,0,2013-06-08 19:03:00
5:14 AM,30.2,28.4,93,30.33,0.7,Calm,Calm,-,N/A,,Unknown,0,2013-06-08 19:14:00
5:26 AM,32.0,32.0,100,30.33,0.6,SE,4.6,-,N/A,,Unknown,130,2013-06-08 19:26:00
5:28 AM,32.0,32.0,100,30.33,0.6,SE,4.6,-,N/A,,Unknown,130,2013-06-08 19:28:00
5:30 AM,32.0,32.0,100,30.33,0.7,SE,4.6,-,N/A,,Unknown,130,2013-06-08 19:30:00
5:33 AM,32.0,32.0,100,30.33,0.6,SE,4.6,-,N/A,,Unknown,130,2013-06-08 19:33:00
5:46 AM,32.0,32.0,100,30.33,0.6,SE,1.2,-,N/A,,Partly Cloudy,140,2013-06-08 19:46:00
6:00 AM,33,32,96,30.38,0,SE,1.2,,,,,140,2013-06-08 20:00:00
6:00 AM,33.8,32.0,93,30.33,0.6,SE,1.2,-,N/A,,Partly Cloudy,140,2013-06-08 20:00:00
6:30 AM,30.2,30.2,100,30.33,0.2,NNE,3.5,-,N/A,Fog,Light Freezing Fog,20,2013-06-08 20:30:00
7:00 AM,33,32,96,30.38,,Calm,Calm,,,,,,2013-06-08 21:00:00
7:00 AM,32.0,32.0,100,30.33,0.2,Calm,Calm,-,N/A,Fog,Fog,0,2013-06-08 21:00:00
7:30 AM,33.8,32.0,93,30.36,0.4,ENE,4.6,-,N/A,Fog,Fog,70,2013-06-08 21:30:00
7:40 AM,33.8,33.8,100,30.36,1.0,NNE,4.6,-,N/A,,Overcast,20,2013-06-08 21:40:00
8:00 AM,33.8,33.8,100,30.36,0.4,North,3.5,-,N/A,Fog,Fog,10,2013-06-08 22:00:00
8:30 AM,35.6,35.6,100,30.36,0.4,NNE,4.6,-,N/A,Fog,Fog,20,2013-06-08 22:30:00
9:00 AM,37,37,98,30.40,0,NW,3.5,,,,Overcast,310,2013-06-08 23:00:00
9:00 AM,37.4,37.4,100,30.36,0.3,NW,3.5,-,N/A,Fog,Fog,310,2013-06-08 23:00:00
9:30 AM,39.2,37.4,93,30.36,0.3,North,2.3,-,N/A,Fog,Fog,360,2013-06-08 23:30:00
10:00 AM,39,39,100,30.39,,South,3.5,,,,,190,2013-06-09 00:00:00
10:00 AM,39.2,39.2,100,30.36,0.3,South,3.5,-,N/A,Fog,Fog,190,2013-06-09 00:00:00
10:05 AM,39.2,39.2,100,30.33,1.2,SSW,3.5,-,N/A,,Mostly Cloudy,200,2013-06-09 00:05:00
10:30 AM,41.0,41.0,100,30.33,1.6,WSW,2.3,-,N/A,Fog,Patches of Fog,250,2013-06-09 00:30:00
11:00 AM,41.0,41.0,100,30.33,3.7,North,2.3,-,N/A,Fog,Patches of Fog,350,2013-06-09 01:00:00
11:10 AM,42.8,41.0,93,30.33,5.0,WSW,3.5,-,N/A,Fog,Patches of Fog,250,2013-06-09 01:10:00
11:21 AM,42.8,41.0,93,30.33,6.2,Calm,Calm,-,N/A,Fog,Patches of Fog,0,2013-06-09 01:21:00
11:30 AM,44.6,41.0,87,30.33,6.2,NW,3.5,-,N/A,Fog,Patches of Fog,320,2013-06-09 01:30:00
11:58 AM,48.2,41.0,76,30.30,6.2,WNW,3.5,-,N/A,,Partly Cloudy,290,2013-06-09 01:58:00
12:00 PM,49,41,66,30.35,,West,3.5,,,,,270,2013-06-09 02:00:00
12:00 PM,48.2,41.0,76,30.30,6.2,West,3.5,-,N/A,,Scattered Clouds,270,2013-06-09 02:00:00
12:30 PM,51.8,41.0,67,30.27,6.2,NNW,2.3,-,N/A,,Mostly Cloudy,340,2013-06-09 02:30:00
1:00 PM,54,41,51,30.30,,WNW,4.6,,,,,290,2013-06-09 03:00:00
1:00 PM,55.4,41.0,58,30.27,6.2,WNW,4.6,-,N/A,,Mostly Cloudy,290,2013-06-09 03:00:00
1:30 PM,55.4,39.2,54,30.24,-9999.0,NNW,5.8,-,N/A,,Clear,340,2013-06-09 03:30:00
2:00 PM,59.0,37.4,45,30.24,-9999.0,WNW,9.2,-,N/A,,Clear,300,2013-06-09 04:00:00
2:30 PM,57.2,37.4,48,30.21,-9999.0,NW,8.1,-,N/A,,Clear,310,2013-06-09 04:30:00
3:00 PM,58,36,31,30.27,,NNW,9.2,,,,,330,2013-06-09 05:00:00
3:00 PM,59.0,35.6,42,30.21,-9999.0,NNW,9.2,-,N/A,,Clear,330,2013-06-09 05:00:00
3:30 PM,55.4,37.4,51,30.21,-9999.0,NNW,9.2,-,N/A,,Clear,330,2013-06-09 05:30:00
4:00 PM,55,37,40,30.25,,NW,8.1,,,,,320,2013-06-09 06:00:00
4:00 PM,55.4,37.4,51,30.21,-9999.0,NW,8.1,-,N/A,,Clear,320,2013-06-09 06:00:00
4:30 PM,55.4,41.0,58,30.21,-9999.0,NNW,8.1,-,N/A,,Clear,340,2013-06-09 06:30:00
5:00 PM,50.0,41.0,71,30.21,6.2,North,8.1,-,N/A,,Scattered Clouds,350,2013-06-09 07:00:00
5:30 PM,48.2,41.0,76,30.21,6.2,North,5.8,-,N/A,,Partly Cloudy,360,2013-06-09 07:30:00
6:00 PM,44,40,80,30.26,,NNE,5.8,,,,,20,2013-06-09 08:00:00
6:00 PM,44.6,39.2,81,30.21,-9999.0,NNE,5.8,-,N/A,,Clear,20,2013-06-09 08:00:00
6:30 PM,42.8,39.2,87,30.21,6.2,ENE,4.6,-,N/A,,Unknown,60,2013-06-09 08:30:00
7:00 PM,41,38,86,30.25,,ENE,4.6,,,,,70,2013-06-09 09:00:00
7:00 PM,41.0,39.2,93,30.21,6.2,ENE,4.6,-,N/A,,Unknown,70,2013-06-09 09:00:00
7:30 PM,37.4,35.6,93,30.21,6.2,ESE,2.3,-,N/A,,Unknown,120,2013-06-09 09:30:00
8:00 PM,39.2,35.6,87,30.21,6.2,SE,2.3,-,N/A,,Unknown,130,2013-06-09 10:00:00
8:30 PM,37.4,35.6,93,30.21,6.2,NE,2.3,-,N/A,,Unknown,50,2013-06-09 10:30:00
9:00 PM,36,36,100,30.27,,Calm,Calm,,,,,,2013-06-09 11:00:00
9:00 PM,37.4,35.6,93,30.21,6.2,Calm,Calm,-,N/A,,Unknown,0,2013-06-09 11:00:00
9:30 PM,35.6,33.8,93,30.21,6.2,Calm,Calm,-,N/A,,Unknown,0,2013-06-09 11:30:00
10:00 PM,34,33,97,30.25,,Calm,Calm,,,,,,2013-06-09 12:00:00
10:00 PM,33.8,33.8,100,30.21,6.2,Calm,Calm,-,N/A,,Unknown,0,2013-06-09 12:00:00
10:27 PM,33.8,32.0,93,30.21,3.7,Calm,Calm,-,N/A,,Unknown,0,2013-06-09 12:27:00
10:30 PM,33.8,32.0,93,30.21,-9999.0,Calm,Calm,-,N/A,,Unknown,0,2013-06-09 12:30:00
10:58 PM,33.8,32.0,93,30.21,6.2,Calm,Calm,-,N/A,,Unknown,0,2013-06-09 12:58:00
11:00 PM,33.8,32.0,93,30.21,6.2,Calm,Calm,-,N/A,,Unknown,0,2013-06-09 13:00:00
11:16 PM,32.0,30.2,93,30.21,-9999.0,NNW,3.5,-,N/A,,Unknown,330,2013-06-09 13:16:00
11:30 PM,30.2,30.2,100,30.21,6.2,North,3.5,-,N/A,,Unknown,350,2013-06-09 13:30:00
11:37 PM,32.0,30.2,93,30.21,6.2,North,3.5,-,N/A,,Unknown,350,2013-06-09 13:37:00